This is the latest recevied weather packets stored in our database for station/object VE2JJ-13. If no packets are shown the sender has not sent any weather packets the latest 10 day(s).
| Time | Temp. | Humidity | Pressure | Rain* | Wind** | Luminosity | Snow |
|---|---|---|---|---|---|---|---|
| 1777651124 | 9.44° C | 51% | 1004.5 hPa | 0 mm | - | - | - |
| 1777650194 | 10° C | 51% | 1004.5 hPa | 0 mm | - | - | - |
| 1777649893 | 10° C | 50% | 1004.5 hPa | 0 mm | - | - | - |
| 1777649648 | 10.56° C | 48% | 1004.5 hPa | 0 mm | - | - | - |
| 1777649593 | 10.56° C | 48% | 1004.5 hPa | 0 mm | - | - | - |
| 1777649293 | 10.56° C | 50% | 1004.6 hPa | 0 mm | - | - | - |
| 1777648964 | 8.89° C | 52% | 1004.6 hPa | 0 mm | - | - | - |
| 1777648664 | 9.44° C | 52% | 1004.6 hPa | 0 mm | - | - | - |
| 1777648364 | 9.44° C | 51% | 1004.7 hPa | 0 mm | - | - | - |
| 1777648064 | 10° C | 51% | 1004.7 hPa | 0 mm | - | - | - |
| 1777647764 | 10° C | 51% | 1004.8 hPa | 0 mm | - | - | - |
| 1777647469 | 10.56° C | 49% | 1004.8 hPa | 0 mm | - | - | - |
| 1777647134 | 10.56° C | 52% | 1004.7 hPa | 0 mm | - | - | - |
| 1777646835 | 9.44° C | 52% | 1004.7 hPa | 0 mm | - | - | - |
| 1777646236 | 10° C | 52% | 1004.7 hPa | 0 mm | - | - | - |
| 1777645907 | 10.56° C | 53% | 1004.7 hPa | 0 mm | - | - | - |
| 1777645605 | 10° C | 52% | 1004.7 hPa | 0 mm | - | - | - |
| 1777645307 | 8.89° C | 54% | 1004.7 hPa | 0 mm | - | - | - |
| 1777645006 | 8.33° C | 55% | 1004.6 hPa | 0 mm | - | - | - |
| 1777644676 | 8.33° C | 54% | 1004.6 hPa | 0 mm | - | - | - |
| 1777644378 | 8.33° C | 54% | 1004.6 hPa | 0 mm | - | - | - |
| 1777643445 | 7.78° C | 57% | 1004.6 hPa | 0 mm | - | - | - |
| 1777643115 | 7.78° C | 58% | 1004.6 hPa | 0 mm | - | - | - |
| 1777642787 | 7.22° C | 58% | 1004.6 hPa | 0 mm | - | - | - |
| 1777642639 | 7.22° C | 58% | 1004.6 hPa | 0 mm | - | - | - |
* Rain latest hour (hover to see other rain measurements)
** Current wind speed in m/s (hover to see current wind gust speed)